www.pogodaiklimat.ru

Погода и климат >> Архив погоды >> Россия >> Новосибирская область >> Убинское


ПОГОДА в Убинском

  • Прогноз погоды в Убинском
  • Монитор погоды в Убинском

АРХИВ ПОГОДЫ в Убинском

Время (UTC), дата Ветер
(напр.,м/с)
 
Видим.   Явления Облачность Т
(С)
Тd
(С)
f
(%)
Тe
(С)
Тes
(С)
Комфортность P
(гПа)
Po
(гПа)
Тmin
(С)
Tmax
(С)
R
(мм)
R24
(мм)
S
(см)
00 13.09 ЮЗ 2 20 км {ливн. осадки} 10/1 600 м
[Cb cap Ac und]
+8.5 +6.7 88 +7 +7 1014.4 997.6 +5.2 0.0
03 13.09 С 2 10 км слаб. ливневой дождь 10/10 300 м
[Cb cap]
+9.5 +9.0 97 +8 +8 1015.4 998.7
06 13.09 СВ 4 20 км {ливн. осадки} 10/10 300 м
[Cb cap]
+7.7 +7.3 97 +4 +4 1018.2 1001.3
09 13.09 С 3 20 км 10/10 600 м
[Cb cap]
+8.5 +5.2 80 +6 +6 1019.6 1002.7
12 13.09 СЗ 1 20 км 6/4 600 м
[Cu med, cong Ci fib]
+10.2 +2.7 60 +10 +10 1018.4 1001.6 +10.9 0.8
15 13.09 ЮЗ 1 20 км туман поземный 3/0
[Ci fib]
+0.6 +0.2 97 -2 -2 1021.4 1004.0
18 13.09 Ю 1 20 км туман поземный ясно -1.4 -1.5 99 -4 -4 1021.5 1004.0
21 13.09 ЮЗ 2 500 м туман ясно -3.3 -3.4 99 -8 -8 1021.6 1004.0
00 14.09 Ю 2 500 м туман 3/0
[Ci fib]
-2.9 -3.0 99 -7 -7 1019.9 1002.2 -3.4
03 14.09 ЮЗ 4 20 км {туман} 6/0
[Ac trans Ci fib]
+6.9 +6.8 99 +3 +4 1019.6 1002.7
06 14.09 ЮЗ 6-10
{10}
20 км {туман} 8/3 600 м
[Cu hum Ac trans Ci fib]
+13.3 +6.4 63 +11 +12 1016.9 1000.4
09 14.09 ЮЗ 7-10
{11}
20 км 4/1 600 м
[Sc Ci fib]
+16.4 +5.8 49 +15 +16 1015.5 999.1
12 14.09 ЮЗ 3
{10}
20 км 10/0
[Ac und]
+14.9 +6.4 57 +14 +14 1014.7 998.3 +16.8
15 14.09 Ю 3 20 км в посл. час ливневой дождь 10/8 600 м
[Cb cap Ac trans]
+11.0 +8.9 87 +9 +9 1015.3 998.7
18 14.09 ЮЗ 1 500 м туман {ливн. осадки} 6/0
[Ci fib]
+5.3 +4.9 97 +4 +4 1015.7 998.7
21 14.09 ЮЗ 2 500 м туман 10/0
[Ac und]
+7.9 +7.8 99 +6 +6 1015.5 998.7
00 15.09 ЮЗ 2 500 м туман 10/0
[Ac und]
+7.6 +7.4 99 +5 +5 1014.7 997.9 +4.7 0.0
03 15.09 З 4 20 км 9 баллов +12.6 +12.4 99 +11 +11 1015.2 998.7
06 15.09 З 5 20 км {туман} 10/3 600 м
[Cu med, cong Ac trans Ci fib]
+20.0 +11.5 58 +21 +21 комфорт 1014.8 998.7
09 15.09 З 5 20 км 7 баллов +21.4 +10.2 49 +23 +24 комфорт 1014.7 998.7
12 15.09 З 2 20 км 6/0
[Ac trans Ci fib]
+20.3 +11.2 56 +23 +23 комфорт 1014.1 998.0 +21.9
15 15.09 Ю 1 20 км туман поземный 1 балл +9.4 +8.9 97 +9 +9 1016.7 1000.0
18 15.09 З 1 20 км туман поземный ясно +7.4 +7.1 98 +6 +6 1018.2 1001.3
21 15.09 штиль 0 500 м туман ясно +4.6 +4.5 99 +3 +3 1018.4 1001.3
00 16.09 Ю 1 500 м туман ясно +4.0 +3.8 99 +2 +2 1017.4 1000.3 +2.9
03 16.09 Ю 2 20 км ясно +14.3 +12.7 90 +14 +16 1017.8 1001.3 +2.2
06 16.09 ЮЗ 4 20 км {туман} ясно +22.5 +9.6 44 +24 +29 комфорт 1017.3 1001.3
09 16.09 ЮЗ 3 20 км 7 баллов +22.8 +7.7 38 +24 +25 комфорт 1016.0 1000.0
12 16.09 Ю 2 20 км 6/4 600 м
[Cu hum Ac trans]
+20.4 +10.0 51 +23 +23 комфорт 1013.9 997.8 +24.4
15 16.09 Ю 1 20 км 4 балла +10.6 +8.5 87 +10 +10 1015.3 998.7
18 16.09 Ю 2 20 км 4/0
[Ci fib]
+9.2 +7.1 87 +7 +7 1015.4 998.7
21 16.09 Ю 1 20 км 2 балла +5.9 +5.3 96 +5 +5 1014.2 997.3
00 17.09 Ю 1 20 км 6/0
[Ac trans]
+7.9 +7.4 97 +7 +7 1012.3 995.5 +5.6
03 17.09 Ю 4 20 км 2 балла +16.2 +8.2 59 +16 +17 1012.3 996.0
06 17.09 Ю 7-11
{11}
20 км 8/0
[Ac trans Ci fib]
+22.6 +7.0 37 +23 +25 комфорт 1008.7 992.8
09 17.09 З 8-14
{16}
20 км 8/5 600 м
[Cb cap Ac trans]
+22.8 +5.7 33 +23 +24 комфорт 1008.0 992.1
12 17.09 ЮЗ 4
{16}
10 км слаб. ливневой дождь 9/4 600 м
[Cb cap Ac As]
+14.0 +9.6 75 +13 +13 1010.8 994.4 +24.6 0.0
15 17.09 ЮЗ 4 20 км 10 баллов +11.8 +6.9 72 +10 +10 1012.5 996.0
18 17.09 ЮЗ 3 20 км 9 баллов +11.1 +7.0 76 +9 +9 1013.9 997.3
21 17.09 ЮЗ 3 20 км 7 баллов +7.9 +5.9 87 +5 +5 1014.1 997.3
00 18.09 ЮЗ 2 20 км 8/3 600 м
[Cb cap Ac trans Ci fib]
+8.3 +5.4 82 +6 +6 1014.0 997.2 +7.8
03 18.09 ЮЗ 4 20 км 7 баллов +14.5 +6.8 60 +13 +14 1015.1 998.7
06 18.09 ЮЗ 5 20 км 10 баллов +18.5 +5.7 43 +18 +18 1014.9 998.7
09 18.09 ЮЗ 4 20 км 9 баллов +21.8 +3.4 30 +22 +22 комфорт 1014.7 998.7
12 18.09 Ю 3
{10}
20 км 8/0
[Ac trans Ci fib]
+18.5 +4.6 40 +19 +19 1013.5 997.3 +22.9
15 18.09 Ю 4 10 км слаб. ливневой дождь 10 баллов +17.2 +5.2 45 +17 +17 1013.6 997.3
18 18.09 Ю 6
{10}
20 км {ливн. осадки} 3/0
[Ac trans]
+16.7 +7.6 55 +16 +16 1010.7 994.4
21 18.09 ЮЗ 5 20 км 2 балла +15.0 +7.1 59 +14 +14 1011.0 994.7
00 19.09 ЮЗ 4 20 км 10/0
[Ac und]
+14.9 +7.5 61 +14 +14 1009.9 993.6 +13.0 0.0
03 19.09 ЮЗ 5 20 км 10 баллов +16.6 +9.8 64 +16 +16 1012.3 996.0
06 19.09 З 5 20 км 4 балла +21.4 +9.6 47 +23 +25 комфорт 1012.0 996.0
09 19.09 ЮЗ 6-11
{11}
20 км 3/0
[Ci fib]
+23.5 +7.6 36 +24 +25 комфорт 1011.9 996.0
12 19.09 Ю 4
{11}
20 км 1/0
[Ci fib]
+21.4 +8.5 44 +23 +23 комфорт 1009.5 993.5 +23.9
15 19.09 Ю 3 20 км ясно +15.9 +7.4 57 +16 +16 1009.6 993.3
18 19.09 Ю 5 20 км 6 баллов +16.7 +6.2 50 +16 +16 1005.5 989.3
21 19.09 Ю 7-10
{13}
20 км 6/0
[Ac trans Ci fib]
+17.8 +3.8 39 +17 +17 1001.0 985.0

 

Местоположение метеостанции Убинское (Новосибирская область, Россия): широта 55.30 долгота 79.63 высота над уровнем моря 138 м.

В архиве по умолчанию представлена погода в Убинском за последнюю неделю. Архивные данные за месяц целиком и за предыдущие месяцы, начиная с января 2011 года, Вы можете получить, выбрав интересующий диапазон дат из раскрывающегося списка и нажав кнопку "Ввод!".


*Определитесь, кто Вы:
робот инопланетянин человек

Внимание! Время в таблицах - всемирное. Для получения местного времени необходимо прибавить поправку, которая равна 7 ч.

Смотрите также архив погоды в соседних городах и на ближайших метеорологических станциях:

Погода в Каргате (Новосибирская область, Россия) (43 км)
Погода в Крещенке (Новосибирская область, Россия) (67 км)
Погода в Барабинске (Новосибирская область, Россия) (80 км)
Погода в Довольном (Новосибирская область, Россия) (87 км)
Погода в Чулыме (Новосибирская область, Россия) (88 км)
Погода в Здвинске (Новосибирская область, Россия) (89 км)
Погода в Ужанихе (Новосибирская область, Россия) (114 км)
Погода в Квашнино (Новосибирская область, Россия) (119 км)
Погода в Кочках (Новосибирская область, Россия) (121 км)
Погода в Северном (Новосибирская область, Россия) (139 км)

Пояснения к столбцам:

Ветер - указаны скорость ветра в м/с - средняя за 10 мин, порывы в срок и между сроками (в фигурных скобках) и направление, откуда дует ветер: С - северный, СВ - северо-восточный, В - восточный, ЮВ - юго-восточный, Ю - южный, ЮЗ - юго-западный, З - западный, СЗ - северо-западный.
Видимость - горизонтальная дальность видимости в метрах или километрах. При видимости от 1 до 10 км при отсутствии осадков обычно наблюдается дымка, при ухудшении видимости до 1 км и менее - туман. В сухую погоду видимость может ухудшаться дымом, пылью или мглою.
Явления - указаны атмосферные явления, наблюдавшиеся в срок или в последний час перед сроком; фигурными скобками обозначены явления, наблюдавшиеся между сроками (за 1-3 часа до срока); квадратными скобками обозначены град или гололедные отложения с указанием их диаметра в мм.
Облачность - указаны через наклонную черту общая и нижняя облачность в баллах и высота нижней границы облаков в метрах; квадратными скобками обозначены формы облаков: Ci - перистые, Cs - перисто-слоистые, Cc - перисто-кучевые, Ac - высококучевые, As - высокослоистые, Sc - слоисто-кучевые, Ns - слоисто-дождевые, Cu - кучевые, Cb - кучево-дождевые. Подробнее классификацию облаков см. в Атласе облаков (PDF).
T - Температура воздуха - температура, измеренная на высоте 2 м над землей.
Td - Температура точки росы - температура, при понижении до которой содержащийся в воздухе водяной пар достигнет насыщения.
f - Относительная влажность воздуха - влажноcть воздуха, измеренная на высоте 2 м над землей.
Te - Эффективная температура - температура, которую ощущает одетый по сезону человек в тени. Характеристика душности погоды. При расчете учитывается влияние влажности воздуха и скорости ветра на теплоощущения человека.
Tes - Эффективная температура на солнце - температура, которую ощущает человек, с поправкой на солнечный нагрев. Характеристика знойности погоды. Зависит от высоты солнца над горизонтом, облачности и скорости ветра. Ночью, в пасмурную погоду, а также при ветре 12 м/с и более поправка равна нулю.
P - Атмосферное давление - приведенное к уровню моря атмосферное давление.
Po - Атмосферное давление - измеренное на уровне метеостанции атмосферное давление.
Tmin - Минимальная температура - минимум температуры воздуха на высоте 2 м над землей.
Tmax - Максимальная температура - максимум температуры воздуха на высоте 2 м над землей.
R - Количество осадков - Количество выпавших осадков за период времени, мм. При наведении курсора мыши на число - период времени, за который выпало указанное количество осадков.
R24 - Количество осадков - Количество выпавших осадков за 24 часа, мм.
S - Снежный покров - Высота снежного покрова, см. При наведении курсора мыши на число - состояние снежного покрова и степень покрытия местности в баллах.